TimeAKDT,TemperatureF,Dew PointF,Humidity,Sea Level PressureIn,VisibilityMPH,Wind Direction,Wind SpeedMPH,Gust SpeedMPH,PrecipitationIn,Events,Conditions,WindDirDegrees,DateUTC
12:16 AM,33.8,26.6,75,30.18,10.0,North,17.3,21.9,N/A,,Overcast,350,2012-10-07 08:16:00
12:36 AM,33.8,26.6,75,30.19,10.0,North,17.3,-,N/A,,Overcast,350,2012-10-07 08:36:00
12:56 AM,32.0,28.4,87,30.20,7.0,North,15.0,-,N/A,,Overcast,350,2012-10-07 08:56:00
1:16 AM,33.8,26.6,75,30.21,10.0,North,11.5,-,N/A,,Overcast,360,2012-10-07 09:16:00
1:36 AM,32.0,26.6,80,30.21,10.0,North,15.0,20.7,N/A,,Overcast,350,2012-10-07 09:36:00
1:56 AM,33.8,26.6,75,30.21,10.0,North,17.3,21.9,N/A,,Overcast,350,2012-10-07 09:56:00
2:16 AM,33.8,26.6,75,30.22,10.0,North,15.0,23.0,N/A,,Overcast,350,2012-10-07 10:16:00
2:36 AM,32.0,26.6,80,30.23,10.0,North,15.0,-,N/A,,Overcast,350,2012-10-07 10:36:00
2:56 AM,33.8,26.6,75,30.23,10.0,North,13.8,20.7,N/A,,Overcast,360,2012-10-07 10:56:00
3:16 AM,32.0,26.6,80,30.24,10.0,North,17.3,-,N/A,,Overcast,350,2012-10-07 11:16:00
3:36 AM,33.8,26.6,75,30.25,10.0,North,13.8,-,N/A,,Overcast,360,2012-10-07 11:36:00
3:56 AM,33.8,28.4,81,30.26,10.0,North,13.8,-,N/A,,Overcast,350,2012-10-07 11:56:00
4:16 AM,33.8,26.6,75,30.27,10.0,North,15.0,-,N/A,,Overcast,360,2012-10-07 12:16:00
4:36 AM,33.8,28.4,81,30.27,10.0,North,13.8,18.4,N/A,,Overcast,10,2012-10-07 12:36:00
4:56 AM,33.8,26.6,75,30.28,10.0,North,15.0,-,N/A,,Overcast,360,2012-10-07 12:56:00
5:16 AM,32.0,28.4,87,30.29,10.0,North,13.8,-,N/A,,Overcast,360,2012-10-07 13:16:00
5:36 AM,33.8,24.8,70,30.30,10.0,North,15.0,-,N/A,,Overcast,360,2012-10-07 13:36:00
5:56 AM,32.0,26.6,80,30.30,10.0,North,16.1,-,N/A,,Overcast,350,2012-10-07 13:56:00
6:16 AM,33.8,24.8,70,30.32,10.0,North,15.0,19.6,N/A,,Overcast,350,2012-10-07 14:16:00
6:36 AM,30.2,26.6,86,30.32,10.0,North,15.0,-,N/A,,Overcast,350,2012-10-07 14:36:00
6:56 AM,32.0,24.8,75,30.32,10.0,North,11.5,-,N/A,,Overcast,350,2012-10-07 14:56:00
7:16 AM,30.2,26.6,86,30.33,10.0,North,11.5,-,N/A,,Overcast,360,2012-10-07 15:16:00
7:36 AM,33.8,24.8,70,30.33,10.0,North,10.4,-,N/A,,Overcast,360,2012-10-07 15:36:00
7:56 AM,30.2,26.6,86,30.33,10.0,North,12.7,17.3,N/A,,Overcast,360,2012-10-07 15:56:00
8:16 AM,32.0,24.8,75,30.33,10.0,North,10.4,-,N/A,,Overcast,10,2012-10-07 16:16:00
8:36 AM,30.2,24.8,80,30.35,10.0,North,10.4,-,N/A,,Overcast,10,2012-10-07 16:36:00
8:56 AM,32.0,24.8,75,30.35,10.0,North,8.1,-,N/A,,Overcast,10,2012-10-07 16:56:00
9:36 AM,32.0,24.8,75,30.36,10.0,NE,9.2,-,N/A,,Overcast,40,2012-10-07 17:36:00
9:56 AM,33.8,24.8,70,30.37,10.0,North,11.5,-,N/A,,Overcast,10,2012-10-07 17:56:00
10:16 AM,32.0,24.8,75,30.37,10.0,NNE,10.4,-,N/A,,Overcast,30,2012-10-07 18:16:00
10:36 AM,33.8,26.6,75,30.38,10.0,North,13.8,-,N/A,,Overcast,10,2012-10-07 18:36:00
10:56 AM,32.0,26.6,80,30.38,10.0,North,12.7,-,N/A,,Overcast,10,2012-10-07 18:56:00
11:16 AM,32.0,26.6,80,30.39,10.0,North,12.7,-,N/A,,Overcast,10,2012-10-07 19:16:00
11:36 AM,33.8,26.6,75,30.39,10.0,NNE,15.0,-,N/A,,Overcast,20,2012-10-07 19:36:00
11:56 AM,32.0,26.6,80,30.40,10.0,North,13.8,-,N/A,,Overcast,10,2012-10-07 19:56:00
12:16 PM,33.8,26.6,75,30.40,10.0,NNE,17.3,-,N/A,,Overcast,20,2012-10-07 20:16:00
12:36 PM,32.0,26.6,80,30.41,10.0,NNE,13.8,-,N/A,,Overcast,20,2012-10-07 20:36:00
12:56 PM,32.0,26.6,80,30.42,10.0,North,12.7,16.1,N/A,,Overcast,10,2012-10-07 20:56:00
1:16 PM,33.8,26.6,75,30.42,10.0,North,12.7,-,N/A,,Overcast,360,2012-10-07 21:16:00
1:36 PM,33.8,26.6,75,30.42,10.0,North,12.7,-,N/A,,Overcast,10,2012-10-07 21:36:00
1:56 PM,33.8,24.8,70,30.43,10.0,North,11.5,-,N/A,,Overcast,10,2012-10-07 21:56:00
2:16 PM,33.8,26.6,75,30.44,10.0,North,11.5,17.3,N/A,,Overcast,360,2012-10-07 22:16:00
2:36 PM,33.8,24.8,70,30.44,10.0,NNE,12.7,18.4,N/A,,Overcast,20,2012-10-07 22:36:00
2:56 PM,33.8,24.8,70,30.44,10.0,North,11.5,-,N/A,,Overcast,360,2012-10-07 22:56:00
3:16 PM,33.8,23.0,65,30.44,10.0,NNE,8.1,-,N/A,,Overcast,20,2012-10-07 23:16:00
3:36 PM,33.8,24.8,70,30.44,10.0,NNE,11.5,-,N/A,,Overcast,30,2012-10-07 23:36:00
3:56 PM,33.8,24.8,70,30.44,10.0,North,13.8,-,N/A,,Overcast,360,2012-10-07 23:56:00
4:16 PM,32.0,24.8,75,30.44,10.0,North,13.8,18.4,N/A,,Overcast,350,2012-10-08 00:16:00
4:36 PM,32.0,24.8,75,30.44,10.0,NNE,12.7,-,N/A,,Overcast,20,2012-10-08 00:36:00
4:56 PM,32.0,24.8,75,30.44,10.0,North,12.7,-,N/A,,Overcast,10,2012-10-08 00:56:00
5:16 PM,32.0,24.8,75,30.44,10.0,North,12.7,-,N/A,,Overcast,10,2012-10-08 01:16:00
5:36 PM,32.0,23.0,69,30.44,10.0,North,16.1,20.7,N/A,,Overcast,350,2012-10-08 01:36:00
5:56 PM,32.0,24.8,75,30.44,10.0,NNE,12.7,-,N/A,,Overcast,20,2012-10-08 01:56:00
6:16 PM,32.0,23.0,69,30.44,10.0,North,13.8,18.4,N/A,,Overcast,350,2012-10-08 02:16:00
6:36 PM,32.0,23.0,69,30.44,10.0,North,11.5,-,N/A,,Overcast,360,2012-10-08 02:36:00
6:56 PM,32.0,23.0,69,30.44,10.0,North,11.5,-,N/A,,Overcast,10,2012-10-08 02:56:00
7:16 PM,32.0,24.8,75,30.44,10.0,North,12.7,18.4,N/A,,Overcast,10,2012-10-08 03:16:00
7:36 PM,32.0,24.8,75,30.44,10.0,North,15.0,-,N/A,,Overcast,10,2012-10-08 03:36:00
7:56 PM,32.0,24.8,75,30.45,10.0,North,13.8,-,N/A,,Overcast,10,2012-10-08 03:56:00
8:16 PM,32.0,24.8,75,30.45,10.0,North,12.7,18.4,N/A,,Overcast,360,2012-10-08 04:16:00
8:36 PM,32.0,24.8,75,30.46,10.0,North,13.8,-,N/A,,Mostly Cloudy,360,2012-10-08 04:36:00
8:56 PM,32.0,24.8,75,30.46,10.0,North,13.8,-,N/A,,Overcast,10,2012-10-08 04:56:00
9:16 PM,32.0,24.8,75,30.46,10.0,North,16.1,19.6,N/A,,Overcast,10,2012-10-08 05:16:00
9:36 PM,32.0,26.6,80,30.46,10.0,North,15.0,-,N/A,,Overcast,360,2012-10-08 05:36:00
9:56 PM,32.0,26.6,80,30.47,10.0,North,13.8,19.6,N/A,,Overcast,360,2012-10-08 05:56:00
10:16 PM,32.0,24.8,75,30.47,10.0,North,16.1,23.0,N/A,,Overcast,10,2012-10-08 06:16:00
10:36 PM,33.8,24.8,70,30.47,10.0,North,17.3,-,N/A,,Overcast,10,2012-10-08 06:36:00
10:56 PM,32.0,26.6,80,30.47,10.0,North,18.4,21.9,N/A,,Overcast,10,2012-10-08 06:56:00
11:16 PM,32.0,26.6,80,30.48,10.0,North,16.1,23.0,N/A,,Overcast,10,2012-10-08 07:16:00
11:36 PM,32.0,26.6,80,30.48,10.0,North,17.3,21.9,N/A,,Overcast,10,2012-10-08 07:36:00
11:56 PM,32.0,26.6,80,30.48,10.0,NNE,16.1,24.2,N/A,,Overcast,20,2012-10-08 07:56:00